This is the latest recevied weather packets stored in our database for station/object K3HW. If no packets are shown the sender has not sent any weather packets the latest 10 day(s).
| Time | Temp. | Humidity | Pressure | Rain* | Wind** | Luminosity | Snow |
|---|---|---|---|---|---|---|---|
| 1777751142 | 15° C | 37% | 1014.9 hPa | 0 mm | - | 142 W/m² | - |
| 1777750536 | 14.44° C | 38% | 1015 hPa | 0 mm | - | 132 W/m² | - |
| 1777750232 | 14.44° C | 41% | 1014.9 hPa | 0 mm | - | 209 W/m² | - |
| 1777749928 | 14.44° C | 42% | 1015 hPa | 0 mm | - | 96 W/m² | - |
| 1777749626 | 14.44° C | 46% | 1015.2 hPa | 0 mm | - | 104 W/m² | - |
| 1777749322 | 14.44° C | 43% | 1015.4 hPa | 0 mm | - | 150 W/m² | - |
| 1777749020 | 14.44° C | 42% | 1015.5 hPa | 0 mm | - | 173 W/m² | - |
| 1777748717 | 14.44° C | 43% | 1015.6 hPa | 0 mm | - | 166 W/m² | - |
| 1777748109 | 14.44° C | 45% | 1015.7 hPa | 0 mm | - | 169 W/m² | - |
| 1777747502 | 14.44° C | 44% | 1015.9 hPa | 0 mm | - | 171 W/m² | - |
| 1777746895 | 14.44° C | 46% | 1015.9 hPa | 0 mm | - | 200 W/m² | - |
| 1777746589 | 13.89° C | 46% | 1015.9 hPa | 0 mm | - | 190 W/m² | - |
| 1777746285 | 13.89° C | 43% | 1016.1 hPa | 0 mm | - | 181 W/m² | - |
| 1777745680 | 13.89° C | 45% | 1015.9 hPa | 0 mm | - | 151 W/m² | - |
| 1777745379 | 15° C | 44% | 1015.8 hPa | 0 mm | - | 171 W/m² | - |
| 1777745076 | 15° C | 44% | 1015.9 hPa | 0 mm | - | 194 W/m² | - |
| 1777744772 | 15° C | 43% | 1015.7 hPa | 0 mm | - | 189 W/m² | - |
| 1777744466 | 15° C | 42% | 1015.8 hPa | 0 mm | - | 200 W/m² | - |
| 1777744163 | 14.44° C | 47% | 1015.9 hPa | 0 mm | - | 199 W/m² | - |
| 1777743860 | 13.89° C | 45% | 1016 hPa | 0 mm | - | 194 W/m² | - |
| 1777743556 | 13.89° C | 45% | 1016.1 hPa | 0 mm | - | 145 W/m² | - |
| 1777741738 | 13.89° C | 47% | 1016 hPa | 0 mm | - | 205 W/m² | - |
| 1777741130 | 13.89° C | 47% | 1016.2 hPa | 0 mm | - | 570 W/m² | - |
| 1777739917 | 13.89° C | 47% | 1016.4 hPa | 0 mm | - | 159 W/m² | - |
| 1777739312 | 13.89° C | 51% | 1016.6 hPa | 0 mm | - | 474 W/m² | - |
* Rain latest hour (hover to see other rain measurements)
** Current wind speed in m/s (hover to see current wind gust speed)